STARLINK-37284, 68623

Orbit data source: Space-Track

STARLINK-37284, 68623 is a payload satellite owned by SpaceX/Seattle (US) in SSO that was launched on Sun, 05 Apr 2026 UTC via an FALCON 9 launch vehicle from the Air Force Western Test Range (AFWTR). Payload-class satellites include a variety of spacecraft equipped with specific instruments for various scientific and technological missions. These include communications satellites like Starlink; space stations such as the ISS; scientific satellites like the Hubble; Earth observation satellites from companies like Planet Labs, Umbra, and HawkEye 360; GPS; miniature CubeSats for education and research; and military/defense satellites.

Loading next visibility...
Identifier
68623, 2026-073X
Orbit
SSO
Country
Flag of USUS
Related business
Manufacturer
SpaceX/Seattle
Mission
Operational spacecraft
Bus & Motor
STARLINK V2MO, Unknown motor
Mass
575 kg wet, ~530 kg dry
Launch date (UTC)
2026-04-05 (3 months ago)
Launch vehicle
FALCON 9
Launch site
Air Force Western Test Range (AFWTR)
Object type
Payload
Rocket body
Debris
Shape & HBR
Unknown shape, 2.3 m
Radar Cross Section
Large (>1 m²)

Expand to show TLE details & history
Last TLE update: 20 hours ago

TLE from 20 hours ago
0 STARLINK-37284
1 68623U 26073X   26171.00630094  .00015839  00000-0  49184-3 0  9997
2 68623  97.2863  10.3018 0001200 100.7058 259.4319 15.33450761 11560
Epoch: 2026-06-20T00:09Z
TLE epoch observation values (Epoch: 2026-06-20T00:09:04.401Z)
Latitude
-0.0001°
Longitude
99.80635°
Altitude
468.789 km
Speed
7.632 km/s
True Right ascension
00h 41m 12s
True Declination
0° 00' 00"
Sunlit
Object was in daylight at epoch
Visualization orbit readout
Latitude
Unknown
Longitude
Unknown
Altitude
Unknown
Speed
Unknown
Apparent Right ascension
Unknown
Apparent Declination
Unknown
Sunlit
N/A
Visualization observer readout
Local Sidereal Time
07:14:21
Azimuth
Unknown
Elevation
Unknown
Doppler factor
Unknown
Orbital elements
Apogee altitude
463.29 km
Perigee altitude
461.648 km
Semi-major axis
6,840.606 km
Eccentricity
0.00012
Inclination
97.2863°
RAAN
10.3018°
Arg. of periapsis
100.7058°
True anomaly
259.41838°
Mean anomaly
259.4319°
Eccentric anomaly
259.42514°
Mean motion
3.8362 °/min
Orbital period
93.84 mins
BSTAR
0.00049184
Loading maneuver chart data...
Computing Atmospheric mass density...
Loading historical data...
Loading historical data...
Loading historical data...
Loading historical data...
Loading historical data...
Loading historical data...
Loading historical data...

Documentation

Showing up to 5 results
|